| time (UTC) | temp F | wind direction | speed knots | gust knots | rain 1hr in | rain 24hr in | rain mn in | humidity % | barometer mb |
| 20260509150014 | 45 | 272 | 0.0 | 0.0 | 0.03 | 0.05 | 0.05 | 91 | 1014.8 |
| 20260509144513 | 45 | 272 | 0.0 | 0.0 | 0.03 | 0.04 | 0.04 | 92 | 1014.9 |
| 20260509143015 | 45 | 272 | 0.0 | 0.0 | 0.02 | 0.03 | 0.03 | 92 | 1015.1 |
| 20260509141520 | 45 | 272 | 0.0 | 0.0 | 0.03 | 0.03 | 0.03 | 92 | 1015.1 |
| 20260509140011 | 45 | 272 | 0.0 | 0.0 | 0.02 | 0.02 | 0.02 | 91 | 1015.0 |
| 20260509134511 | 44 | 272 | 0.0 | 0.0 | 0.01 | 0.01 | 0.01 | 90 | 1014.9 |
| 20260509133012 | 45 | 272 | 0.0 | 0.0 | 0.01 | 0.01 | 0.01 | 89 | 1014.6 |
| 20260509131515 | 45 | 272 | 0.0 | 0.0 | 0.00 | 0.00 | 0.00 | 87 | 1014.6 |
| 20260509130009 | 45 | 272 | 0.0 | 0.0 | 0.00 | 0.00 | 0.00 | 85 | 1014.7 |
| 20260509124510 | 46 | 272 | 0.0 | 0.0 | 0.00 | 0.00 | 0.00 | 83 | 1014.8 |
| 20260509123018 | 46 | 272 | 0.0 | 0.0 | 0.00 | 0.00 | 0.00 | 80 | 1014.9 |
| 20260509121503 | 45 | 272 | 0.0 | 0.0 | 0.00 | 0.00 | 0.00 | 79 | 1015.0 |
| 20260509120108 | 45 | 272 | 0.0 | 0.9 | 0.00 | 0.00 | 0.00 | 84 | 1015.0 |
| 20260509114611 | 43 | 272 | 0.0 | 1.7 | 0.00 | 0.00 | 0.00 | 86 | 1015.2 |
| 20260509113104 | 42 | 241 | 0.0 | 0.0 | 0.00 | 0.00 | 0.00 | 87 | 1014.8 |
| 20260509111558 | 42 | 241 | 0.0 | 0.9 | 0.00 | 0.00 | 0.00 | 88 | 1015.0 |
| 20260509110105 | 42 | 241 | 0.0 | 0.9 | 0.00 | 0.00 | 0.00 | 87 | 1014.9 |
| 20260509104600 | 40 | 290 | 0.0 | 0.0 | 0.00 | 0.00 | 0.00 | 87 | 1014.9 |
| 20260509103053 | 39 | 290 | 0.0 | 0.0 | 0.00 | 0.00 | 0.00 | 88 | 1014.8 |
| 20260509101552 | 39 | 290 | 0.0 | 0.0 | 0.00 | 0.00 | 0.00 | 88 | 1014.8 |
| 20260509100049 | 38 | 290 | 0.0 | 0.0 | 0.00 | 0.00 | 0.00 | 86 | 1014.6 |
| 20260509094548 | 39 | 290 | 0.0 | 0.0 | 0.00 | 0.00 | 0.00 | 86 | 1014.4 |
| 20260509093048 | 38 | 290 | 0.0 | 0.9 | 0.00 | 0.00 | 0.00 | 88 | 1014.3 |
| 20260509091545 | 38 | 290 | 0.0 | 0.0 | 0.00 | 0.00 | 0.00 | 87 | 1014.1 |
| 20260509090049 | 38 | 290 | 0.0 | 0.0 | 0.00 | 0.00 | 0.00 | 86 | 1014.1 |
| 20260509084542 | 38 | 290 | 0.0 | 0.0 | 0.00 | 0.00 | 0.00 | 85 | 1014.1 |
| 20260509083046 | 39 | 290 | 0.0 | 0.0 | 0.00 | 0.00 | 0.00 | 85 | 1013.8 |
| 20260509081543 | 39 | 290 | 0.0 | 0.0 | 0.00 | 0.00 | 0.00 | 84 | 1014.1 |
| 20260509080037 | 39 | 290 | 0.0 | 0.0 | 0.00 | 0.00 | 0.00 | 83 | 1014.0 |
| 20260509074538 | 39 | 290 | 0.0 | 0.0 | 0.00 | 0.00 | 0.00 | 83 | 1013.9 |
| 20260509073036 | 39 | 290 | 0.0 | 0.0 | 0.00 | 0.00 | 0.00 | 82 | 1013.9 |
| 20260509071532 | 40 | 290 | 0.0 | 0.0 | 0.00 | 0.00 | 0.00 | 81 | 1013.8 |
| 20260509070033 | 40 | 290 | 0.0 | 0.0 | 0.00 | 0.00 | 0.00 | 81 | 1013.8 |
| 20260509064532 | 40 | 290 | 0.0 | 0.0 | 0.00 | 0.00 | 0.00 | 80 | 1013.6 |
| 20260509063031 | 40 | 290 | 0.0 | 0.9 | 0.00 | 0.00 | 0.00 | 81 | 1013.5 |
| 20260509061529 | 40 | 290 | 0.0 | 0.0 | 0.00 | 0.00 | 0.00 | 81 | 1013.7 |
| 20260509060028 | 40 | 290 | 0.0 | 0.0 | 0.00 | 0.00 | 0.00 | 79 | 1013.7 |
| 20260509054538 | 40 | 290 | 0.0 | 0.0 | 0.00 | 0.00 | 0.00 | 77 | 1013.8 |
| 20260509053057 | 41 | 290 | 0.0 | 0.0 | 0.00 | 0.00 | 0.00 | 75 | 1013.7 |
| 20260509051524 | 42 | 290 | 0.0 | 0.0 | 0.00 | 0.00 | 0.00 | 74 | 1013.6 |
| 20260509050034 | 42 | 290 | 0.0 | 0.0 | 0.00 | 0.00 | 0.00 | 72 | 1013.6 |
| 20260509044614 | 43 | 290 | 0.0 | 0.0 | 0.00 | 0.00 | 0.00 | 72 | 1013.5 |
| 20260509043012 | 43 | 290 | 0.0 | 0.0 | 0.00 | 0.00 | 0.00 | 72 | 1013.6 |
| 20260509041510 | 43 | 290 | 0.0 | 0.0 | 0.00 | 0.00 | 0.00 | 70 | 1013.4 |
| 20260509040006 | 44 | 290 | 0.0 | 0.0 | 0.00 | 0.00 | 0.00 | 68 | 1013.3 |
| 20260509034505 | 45 | 290 | 0.0 | 0.9 | 0.00 | 0.00 | 0.00 | 67 | 1013.3 |
| 20260509033005 | 45 | 290 | 0.0 | 0.9 | 0.00 | 0.00 | 0.00 | 66 | 1013.2 |
| 20260509031503 | 45 | 290 | 0.0 | 0.9 | 0.00 | 0.00 | 0.00 | 65 | 1013.1 |
| 20260509030008 | 46 | 290 | 0.0 | 0.0 | 0.00 | 0.00 | 0.00 | 64 | 1013.0 |
| 20260509024601 | 46 | 290 | 0.0 | 0.0 | 0.00 | 0.00 | 0.00 | 62 | 1012.9 |
| 20260509023100 | 47 | 290 | 0.0 | 0.0 | 0.00 | 0.00 | 0.00 | 61 | 1012.9 |
| 20260509021601 | 48 | 290 | 0.0 | 0.0 | 0.00 | 0.00 | 0.00 | 59 | 1012.8 |
| 20260509020056 | 49 | 290 | 0.0 | 0.0 | 0.00 | 0.00 | 0.00 | 57 | 1012.5 |
| 20260509014554 | 49 | 290 | 0.0 | 0.9 | 0.00 | 0.00 | 0.00 | 55 | 1012.3 |
| 20260509013108 | 50 | 291 | 0.0 | 1.7 | 0.00 | 0.00 | 0.00 | 54 | 1012.0 |
| 20260509011559 | 51 | 291 | 0.0 | 4.3 | 0.00 | 0.00 | 0.00 | 52 | 1011.8 |
| 20260509010047 | 51 | 295 | 0.0 | 3.5 | 0.00 | 0.00 | 0.00 | 50 | 1011.5 |
| 20260509004545 | 52 | 291 | 1.7 | 4.3 | 0.00 | 0.00 | 0.00 | 49 | 1011.1 |
| 20260509003105 | 52 | 291 | 1.7 | 6.1 | 0.00 | 0.00 | 0.00 | 48 | 1010.8 |
| 20260509001540 | 52 | 295 | 0.0 | 5.2 | 0.00 | 0.00 | 0.00 | 47 | 1010.6 |
| 20260509000039 | 53 | 293 | 1.7 | 5.2 | 0.00 | 0.00 | 0.00 | 45 | 1010.3 |
| 20260508234535 | 54 | 300 | 2.6 | 7.0 | 0.00 | 0.00 | 0.00 | 42 | 1010.1 |
| 20260508233035 | 55 | 309 | 4.3 | 8.7 | 0.00 | 0.00 | 0.00 | 39 | 1009.7 |
| 20260508231539 | 57 | 303 | 1.7 | 7.0 | 0.00 | 0.00 | 0.00 | 36 | 1009.5 |
| 20260508230033 | 58 | 315 | 2.6 | 6.1 | 0.00 | 0.00 | 0.00 | 34 | 1009.3 |
| 20260508224536 | 58 | 319 | 2.6 | 10.4 | 0.00 | 0.00 | 0.00 | 35 | 1009.1 |
| 20260508223032 | 58 | 347 | 3.5 | 10.4 | 0.00 | 0.00 | 0.00 | 35 | 1009.0 |
| 20260508221531 | 58 | 295 | 3.5 | 7.0 | 0.00 | 0.00 | 0.00 | 35 | 1009.0 |
| 20260508220030 | 58 | 321 | 1.7 | 7.0 | 0.00 | 0.00 | 0.00 | 36 | 1009.0 |
| 20260508214631 | 58 | 325 | 3.5 | 13.9 | 0.00 | 0.00 | 0.00 | 34 | 1008.9 |
| 20260508213029 | 58 | 318 | 1.7 | 13.0 | 0.00 | 0.00 | 0.00 | 35 | 1008.8 |
| 20260508211529 | 59 | 340 | 2.6 | 10.4 | 0.00 | 0.00 | 0.00 | 34 | 1008.6 |
| 20260508210031 | 57 | 313 | 0.9 | 3.5 | 0.00 | 0.00 | 0.00 | 38 | 1008.6 |
| 20260508204526 | 57 | 312 | 0.0 | 6.1 | 0.00 | 0.00 | 0.00 | 38 | 1008.6 |
| 20260508203026 | 58 | 297 | 0.0 | 7.0 | 0.00 | 0.00 | 0.00 | 37 | 1008.6 |
| 20260508201526 | 58 | 305 | 3.5 | 11.3 | 0.00 | 0.00 | 0.00 | 37 | 1008.6 |
| 20260508200026 | 58 | 310 | 2.6 | 8.7 | 0.00 | 0.00 | 0.00 | 37 | 1008.5 |
| 20260508194525 | 59 | 322 | 4.3 | 9.6 | 0.00 | 0.00 | 0.00 | 35 | 1008.5 |
| 20260508193024 | 58 | 293 | 3.5 | 8.7 | 0.00 | 0.00 | 0.00 | 36 | 1008.5 |
| 20260508191518 | 57 | 338 | 2.6 | 17.4 | 0.00 | 0.00 | 0.00 | 38 | 1008.5 |
| 20260508190023 | 56 | 270 | 3.5 | 12.2 | 0.00 | 0.00 | 0.00 | 36 | 1008.6 |
| 20260508184517 | 57 | 328 | 5.2 | 10.4 | 0.00 | 0.00 | 0.00 | 34 | 1008.6 |
| 20260508183018 | 57 | 305 | 3.5 | 8.7 | 0.00 | 0.00 | 0.00 | 34 | 1008.4 |
| 20260508181513 | 57 | 341 | 3.5 | 11.3 | 0.00 | 0.00 | 0.00 | 34 | 1008.5 |
| 20260508180011 | 56 | 310 | 2.6 | 8.7 | 0.00 | 0.00 | 0.00 | 39 | 1008.6 |
| 20260508174527 | 56 | 321 | 1.7 | 8.7 | 0.00 | 0.00 | 0.00 | 44 | 1008.7 |
| 20260508173012 | 55 | 277 | 3.5 | 11.3 | 0.00 | 0.00 | 0.00 | 40 | 1008.7 |
| 20260508171509 | 56 | 301 | 1.7 | 9.6 | 0.00 | 0.00 | 0.00 | 41 | 1008.7 |
| 20260508170010 | 55 | 292 | 4.3 | 12.2 | 0.00 | 0.00 | 0.00 | 40 | 1008.6 |
| 20260508164509 | 55 | 307 | 1.7 | 8.7 | 0.00 | 0.00 | 0.00 | 41 | 1008.6 |
| 20260508163022 | 55 | 295 | 1.7 | 7.8 | 0.00 | 0.00 | 0.00 | 42 | 1008.6 |
| 20260508161509 | 56 | 295 | 2.6 | 10.4 | 0.00 | 0.00 | 0.00 | 41 | 1008.5 |
| 20260508160006 | 55 | 293 | 1.7 | 7.8 | 0.00 | 0.00 | 0.00 | 43 | 1008.7 |
| 20260508154505 | 55 | 314 | 2.6 | 7.0 | 0.00 | 0.00 | 0.00 | 42 | 1008.9 |
| 20260508153010 | 55 | 311 | 1.7 | 11.3 | 0.00 | 0.00 | 0.00 | 43 | 1009.1 |
| 20260508151505 | 55 | 327 | 3.5 | 10.4 | 0.00 | 0.00 | 0.00 | 41 | 1009.1 |